X

Important NEWS



New Hub Active

Miami is our new hub! Old members can request transfer via hr@dlxairways.net

Thank you very much and have nice flight.


Deluxe Airways.

X

Tours



Hello again, we created one nice test tour for all pilots to attend. also this is ment to be testing of our tour system

Available Tours

If you find some issues please inform us.

Thank you very much and have nice flight.


Deluxe Airways.

 METAR AND TAF INFORMATION
ArrayMETAR FOR LFBO
24440621 5 LFBO 250630Z AUTO 35007KT 320V020 9999 ///TCU 12/10 Q1005 TEMPO 4000 +RA BECMG FEW015 BKN035 LFBO 2019-04-25T06:30:00Z 43.62 1.37 12.0 10.0 350 7 6.21 29.675198 TRUE METAR 153.0 LFBO 250600Z AUTO 34011KT 9999 BKN041 BKN066 BKN076 12/10 Q1004 TEMPO 4000 +RA LFBO 2019-04-25T06:00:00Z 43.62 1.37 12.0 10.0 340 11 6.21 29.64567 TRUE VFR SPECI 153.0 LFBO 250530Z AUTO 28015KT 9999 -RA FEW038/// OVC078/// ///TCU 12/09 Q1004 TEMPO 4000 +RA BECMG FEW015 BKN035 LFBO 2019-04-25T05:30:00Z 43.62 1.37 12.0 9.0 280 15 6.21 29.64567 TRUE -RA VFR SPECI 153.0 LFBO 250500Z AUTO 24013G23KT 170V280 9999 ///TCU 14/07 Q1002 TEMPO 4000 RA BKN014 BKN040 FEW060TCU LFBO 2019-04-25T05:00:00Z 43.62 1.37 14.0 7.0 240 13 23 6.21 29.586615 TRUE METAR 153.0

 AIRPORT MAP

 RUNWAY INFORMATION
Runway 14L Runway length 9843 ft Runway width 148 ft
Runway elevation 490 ft Runway displaced threshold 0 ft Runway heading 143
Runway 32R Runway length 9843 ft Runway width 148 ft
Runway elevation 497 ft Runway displaced threshold 0 ft Runway heading 323
Runway 14R Runway length 11483 ft Runway width 148 ft
Runway elevation 488 ft Runway displaced threshold 0 ft Runway heading 143
Runway 32L Runway length 11483 ft Runway width 148 ft
Runway elevation 497 ft Runway displaced threshold 0 ft Runway heading 323

 AIRPORT FREQUENCIES
Type AFIS Name TOULOUSE I Frequency 121.25 MHZ
Type APP Name APP Frequency 121.1 MHZ
Type APP Name TOULOUSE A Frequency 125.175 MHZ
Type ATIS Name ATIS Frequency 123.125 MHZ
Type CLD Name CLNC DEL Frequency 121.7 MHZ
Type GND Name GND Frequency 121.9 MHZ
Type TWR Name TWR Frequency 118.1 MHZ

 AIRPORT NEAR NAVIGATION AIDS
Type NDB Name Toulouse Frequency 415 KHZ
Type VOR-DME Name Toulouse Frequency 117700 KHZ
Type NDB Name Toulouse Frequency 423 KHZ
Type NDB Name Toulouse Frequency 406 KHZ



Powered by Virtual Airlines Manager [v2.6.2]

Template code change by DeluxeAir